Location: *
(41.0833°N, 73.4167°W)
Time: 09:25:21
(UTC+00:00)

Cosmos 1892 Rocket - Pass Details

Date: 22 October 2019
Orbit: 605 x 634 km, 82.5° (Epoch: 12 November)

Event Time Altitude Azimuth Distance (km) Brightness Sun altitude
Rises 09:30:30 0° 189° (S) 2,898 6.9 -19.9°
Reaches altitude 10° 09:32:44 10° 191° (S) 1,992 6.0 -19.5°
Maximum altitude 09:37:09 79° 277° (W) 637 3.4 -18.7°
Drops below altitude 10° 09:41:34 10° 5° (N) 1,989 6.2 -17.9°
Sets 09:43:48 0° 7° (N) 2,894 7.1 -17.4°
